FW3819 Weather Reports


Display with metric or nautical units.
time (UTC)temp
F
wind
direction
speed
MPH
gust
MPH
rain 1hr
in
rain 24hr
in
rain mn
in
humidity
%
barometer
mb
20260905211823 81 54 1.0 4.0 0.00 0.00 0.00 63 1011.8
20260905211607 81 37 1.0 3.0 0.00 0.00 0.00 63 1011.9
20260905211103 81 54 1.0 3.0 0.00 0.00 0.00 63 1011.7
20260905210308 82 54 0.0 3.0 0.00 0.00 0.00 63 1011.8
20260905210103 82 326 1.0 3.0 0.00 0.00 0.00 63 1011.8
20260905205308 82 326 1.0 4.0 0.00 0.00 0.00 63 1011.8
20260905204807 82 0 1.0 4.0 0.00 0.00 0.00 63 1011.9
20260905204307 82 28 1.0 3.0 0.00 0.01 0.00 63 1011.8
20260905203804 82 73 1.0 3.0 0.00 0.01 0.00 64 1011.9
20260905203304 82 54 1.0 4.0 0.00 0.01 0.00 64 1011.8
20260905202806 82 54 1.0 5.0 0.00 0.01 0.00 63 1011.9
20260905202306 82 37 1.0 5.0 0.00 0.01 0.00 64 1011.8
20260905201803 83 61 1.0 4.0 0.00 0.01 0.00 65 1011.9
20260905201302 83 296 1.0 5.0 0.00 0.01 0.00 64 1011.8
20260905200802 83 0 1.0 5.0 0.00 0.01 0.00 64 1011.9
20260905200303 83 11 1.0 7.0 0.00 0.01 0.00 64 1011.9
20260905195804 83 0 2.0 14.0 0.00 0.01 0.00 62 1011.9
20260905195306 83 338 2.0 14.0 0.00 0.01 0.00 62 1012.0
20260905194802 83 265 2.0 7.0 0.00 0.01 0.00 61 1012.0
20260905194302 84 25 3.0 14.0 0.00 0.01 0.00 61 1012.0
20260905194053 84 312 2.0 14.0 0.00 0.01 0.00 61 1012.2
20260905193600 84 261 1.0 7.0 0.00 0.01 0.00 61 1012.2
20260905192801 83 28 2.0 11.0 0.00 0.01 0.00 62 1012.2
20260905192553 84 143 2.0 11.0 0.00 0.01 0.00 62 1012.1
20260905191801 83 326 2.0 7.0 0.00 0.01 0.00 62 1012.1
20260905191301 84 0 1.0 4.0 0.00 0.01 0.00 62 1012.2
20260905190801 83 291 2.0 7.0 0.00 0.01 0.00 62 1012.2
20260905190302 83 41 2.0 7.0 0.00 0.01 0.00 66 1012.2
20260905185802 83 345 2.0 5.0 0.00 0.01 0.00 65 1012.1
20260905185305 82 54 1.0 4.0 0.00 0.01 0.00 67 1012.3
20260905184801 82 143 1.0 7.0 0.00 0.01 0.00 66 1012.4
20260905184301 82 350 1.0 7.0 0.00 0.01 0.00 66 1012.4
20260905184057 82 326 1.0 4.0 0.00 0.01 0.00 68 1012.3
20260905183353 81 54 1.0 7.0 0.00 0.01 0.00 68 1012.5
20260905183335 81 21 1.0 3.0 0.00 0.01 0.00 68 1012.3
20260905182305 81 21 1.0 7.0 0.00 0.01 0.00 68 1012.6
20260905182057 81 82 1.0 5.0 0.00 0.01 0.00 70 1012.6
20260905181554 80 28 1.0 5.0 0.00 0.01 0.00 69 1012.7
20260905180759 80 279 2.0 8.0 0.00 0.01 0.00 70 1012.6
20260905180254 80 305 2.0 8.0 0.00 0.01 0.00 70 1012.6
20260905175747 80 279 2.0 7.0 0.00 0.01 0.00 71 1012.7
20260905175248 80 234 2.0 7.0 0.00 0.01 0.00 72 1012.9
20260905174747 80 353 1.0 4.0 0.00 0.01 0.00 71 1013.0
20260905174248 81 279 1.0 7.0 0.00 0.01 0.00 72 1013.1
20260905174042 81 246 1.0 7.0 0.00 0.01 0.00 71 1013.0
20260905173248 81 279 1.0 5.0 0.00 0.01 0.00 70 1013.1
20260905172747 81 256 1.0 5.0 0.00 0.01 0.00 70 1013.1
20260905172341 81 100 1.0 4.0 0.00 0.01 0.00 71 1013.2
20260905172326 81 279 1.0 4.0 0.00 0.01 0.00 71 1013.1
20260905171246 80 143 1.0 4.0 0.00 0.01 0.00 73 1013.3
20260905170745 80 279 1.0 4.0 0.00 0.01 0.00 73 1013.4
20260905170244 80 73 2.0 8.0 0.00 0.01 0.00 72 1013.3
20260905165744 80 54 2.0 8.0 0.00 0.01 0.00 71 1013.4
20260905165243 80 251 2.0 8.0 0.00 0.01 0.00 71 1013.5
20260905165036 80 265 2.0 8.0 0.00 0.01 0.00 71 1013.3
20260905164536 80 194 2.0 5.0 0.00 0.01 0.00 73 1013.3
20260905164037 80 223 2.0 5.0 0.00 0.01 0.00 73 1013.4
20260905163242 80 210 1.0 5.0 0.00 0.01 0.00 73 1013.3
20260905162742 80 234 2.0 5.0 0.00 0.01 0.00 74 1013.4
20260905162239 80 171 2.0 9.0 0.00 0.01 0.00 73 1013.5
20260905162032 80 198 2.0 9.0 0.00 0.01 0.00 72 1013.6
20260905161530 80 242 1.0 5.0 0.00 0.01 0.00 74 1013.8
20260905160738 80 11 1.0 5.0 0.00 0.01 0.00 74 1013.9
20260905160238 80 11 1.0 7.0 0.00 0.01 0.00 74 1013.8
20260905160027 80 67 1.0 7.0 0.00 0.01 0.00 73 1013.9
20260905155238 80 340 1.0 5.0 0.00 0.01 0.00 73 1013.8
20260905154739 79 279 2.0 9.0 0.00 0.01 0.00 75 1013.8
20260905154239 79 268 2.0 9.0 0.00 0.01 0.00 74 1013.8
20260905153737 79 301 2.0 7.0 0.00 0.01 0.00 74 1013.9
20260905153239 79 215 2.0 8.0 0.00 0.01 0.00 74 1014.0
20260905152738 79 305 2.0 8.0 0.00 0.01 0.00 75 1014.0
20260905152239 78 248 1.0 7.0 0.00 0.01 0.00 76 1014.1
20260905151737 78 301 2.0 7.0 0.00 0.01 0.00 75 1014.4
20260905151238 78 246 3.0 8.0 0.00 0.01 0.00 74 1014.5
20260905150737 78 241 2.0 8.0 0.00 0.01 0.00 75 1014.5
20260905150240 78 248 1.0 4.0 0.00 0.01 0.00 76 1014.4
20260905145739 78 143 1.0 4.0 0.00 0.01 0.00 75 1014.3
20260905145239 78 268 1.0 3.0 0.00 0.01 0.00 75 1014.3
20260905144738 78 345 1.0 3.0 0.00 0.01 0.00 75 1014.1
20260905144238 78 37 1.0 3.0 0.00 0.01 0.00 76 1014.0
20260905143740 78 54 1.0 3.0 0.00 0.01 0.00 77 1014.0
20260905143234 77 54 0.0 3.0 0.00 0.01 0.00 77 1013.9
20260905142734 77 54 1.0 3.0 0.00 0.01 0.00 77 1013.9
20260905142234 77 296 1.0 4.0 0.00 0.01 0.00 77 1013.9
20260905141735 77 296 1.0 4.0 0.00 0.01 0.00 78 1013.7
20260905141235 76 234 1.0 4.0 0.00 0.01 0.00 79 1013.6
20260905140734 76 18 2.0 5.0 0.00 0.01 0.00 80 1013.3
20260905140235 75 28 2.0 7.0 0.00 0.01 0.00 81 1013.2
20260905135735 74 37 2.0 7.0 0.00 0.01 0.00 85 1013.2
20260905135235 73 357 2.0 5.0 0.00 0.01 0.00 89 1013.1
20260905134730 73 326 2.0 5.0 0.00 0.01 0.00 92 1013.0
20260905134231 73 54 1.0 5.0 0.00 0.01 0.00 93 1013.2
20260905133729 73 37 1.0 3.0 0.00 0.01 0.00 94 1013.3
20260905133229 73 11 1.0 5.0 0.00 0.01 0.00 94 1013.2
20260905132730 73 41 1.0 5.0 0.00 0.01 0.00 94 1013.2
20260905132231 73 54 1.0 4.0 0.00 0.01 0.00 95 1013.3
20260905132023 73 54 1.0 4.0 0.00 0.01 0.00 95 1013.4
20260905131232 73 54 1.0 4.0 0.00 0.01 0.00 95 1013.4
20260905130732 73 284 1.0 7.0 0.00 0.01 0.00 95 1013.3
20260905130232 72 251 1.0 7.0 0.00 0.01 0.00 95 1013.3
20260905125731 72 11 1.0 5.0 0.00 0.01 0.00 95 1013.3
20260905125231 72 296 1.0 4.0 0.00 0.01 0.00 95 1013.3
20260905125024 72 296 1.0 4.0 0.00 0.01 0.00 95 1013.3
20260905124230 72 279 0.0 3.0 0.00 0.01 0.00 95 1013.3
20260905123729 72 279 0.0 1.0 0.00 0.01 0.00 95 1013.2
20260905123229 71 11 0.0 1.0 0.00 0.01 0.00 95 1013.2
20260905122730 71 54 1.0 3.0 0.00 0.01 0.00 95 1013.2
20260905122229 71 326 1.0 3.0 0.00 0.01 0.00 95 1013.1
20260905121727 71 205 1.0 3.0 0.00 0.01 0.00 95 1013.2
20260905121222 71 54 0.0 3.0 0.00 0.01 0.00 95 1013.1
20260905120718 71 143 0.0 1.0 0.00 0.01 0.00 95 1013.2
20260905120210 70 143 0.0 1.0 0.00 0.01 0.00 95 1013.1
20260905115702 70 11 0.0 1.0 0.00 0.01 0.00 94 1013.0
20260905115206 70 82 1.0 3.0 0.00 0.01 0.00 94 1012.9
20260905114706 70 54 1.0 4.0 0.00 0.01 0.00 94 1012.9
20260905114501 69 249 0.0 4.0 0.00 0.01 0.00 94 1012.9
20260905113754 69 54 0.0 1.0 0.00 0.01 0.00 94 1012.9
20260905113738 69 234 0.0 1.0 0.00 0.01 0.00 94 1012.9
20260905112958 69 82 0.0 1.0 0.00 0.01 0.00 94 1012.8
20260905112203 69 143 0.0 1.0 0.00 0.01 0.00 94 1012.9
20260905111955 69 279 0.0 3.0 0.00 0.01 0.00 94 1012.9
20260905111203 69 279 0.0 3.0 0.00 0.01 0.00 94 1012.8
20260905110702 69 268 0.0 1.0 0.00 0.01 0.00 94 1012.7
20260905110203 69 234 0.0 1.0 0.00 0.01 0.00 94 1012.6
20260905105703 69 54 0.0 1.0 0.00 0.01 0.00 93 1012.6
20260905105203 69 11 0.0 1.0 0.00 0.01 0.00 93 1012.5
20260905104702 69 54 0.0 0.0 0.00 0.01 0.00 93 1012.5
20260905104205 69 11 0.0 1.0 0.00 0.01 0.00 93 1012.4
20260905103704 69 82 0.0 1.0 0.00 0.01 0.00 93 1012.3
20260905103203 69 11 0.0 1.0 0.00 0.01 0.00 94 1012.1
20260905102701 69 100 0.0 1.0 0.00 0.01 0.00 94 1012.0
20260905102202 69 11 0.0 1.0 0.00 0.01 0.00 94 1012.1
20260905101702 70 11 0.0 1.0 0.00 0.01 0.00 94 1012.1
20260905101203 70 54 0.0 1.0 0.00 0.01 0.00 94 1012.0
20260905100703 70 54 0.0 3.0 0.00 0.01 0.00 93 1012.1
20260905100201 70 353 0.0 3.0 0.00 0.01 0.00 93 1012.0
20260905095758 70 11 1.0 3.0 0.00 0.01 0.00 93 1012.1
20260905095737 70 11 0.0 3.0 0.00 0.01 0.00 93 1012.0
20260905094701 70 73 1.0 3.0 0.00 0.01 0.00 93 1012.0
20260905094202 70 54 0.0 3.0 0.00 0.01 0.00 93 1012.0
20260905093701 70 21 0.0 3.0 0.00 0.01 0.00 93 1012.1
20260905093201 70 28 0.0 3.0 0.00 0.01 0.00 93 1012.0
20260905092952 70 28 0.0 1.0 0.00 0.01 0.00 93 1011.9
20260905092202 70 54 0.0 1.0 0.00 0.01 0.00 93 1012.0
20260905091702 70 326 0.0 3.0 0.00 0.01 0.00 93 1012.0
20260905091203 70 28 0.0 3.0 0.00 0.01 0.00 93 1012.0
20260905090702 70 54 0.0 1.0 0.00 0.01 0.00 93 1012.2
20260905090243 70 305 0.0 1.0 0.00 0.01 0.00 93 1012.0
20260905090227 70 28 0.0 1.0 0.00 0.01 0.00 93 1012.0
20260905085149 70 353 0.0 1.0 0.00 0.01 0.00 93 1012.0
20260905084640 70 54 0.0 1.0 0.00 0.01 0.00 93 1012.0
20260905084133 70 54 0.0 1.0 0.00 0.01 0.00 93 1012.0
20260905083634 70 28 0.0 1.0 0.00 0.01 0.00 93 1011.9
20260905083135 70 54 0.0 1.0 0.00 0.01 0.00 93 1012.0
20260905082635 70 296 0.0 1.0 0.00 0.01 0.00 93 1012.0
20260905082133 71 11 0.0 1.0 0.00 0.01 0.00 93 1011.9
20260905081631 71 73 0.0 1.0 0.00 0.01 0.00 93 1012.0
20260905081131 71 28 0.0 1.0 0.00 0.01 0.00 93 1012.1
20260905080631 71 54 0.0 1.0 0.00 0.01 0.00 93 1012.2
20260905080129 71 82 0.0 1.0 0.00 0.01 0.00 92 1012.3
20260905075631 71 100 0.0 1.0 0.00 0.01 0.00 92 1012.4
20260905075130 71 143 0.0 1.0 0.00 0.01 0.00 92 1012.4
20260905074629 71 100 0.0 1.0 0.00 0.01 0.00 93 1012.4
20260905074420 71 143 0.0 1.0 0.00 0.01 0.00 93 1012.4
20260905073920 71 11 0.0 0.0 0.00 0.01 0.00 93 1012.4
20260905073132 71 100 0.0 1.0 0.00 0.01 0.00 93 1012.3
20260905072630 71 54 0.0 1.0 0.00 0.01 0.00 92 1012.3
20260905072131 71 143 0.0 1.0 0.00 0.01 0.00 92 1012.3
20260905071632 71 143 0.0 0.0 0.00 0.01 0.00 92 1012.4
20260905071129 71 11 0.0 0.0 0.00 0.01 0.00 92 1012.4
20260905070631 71 143 0.0 1.0 0.00 0.01 0.00 92 1012.4
20260905070130 71 326 0.0 1.0 0.00 0.01 0.00 92 1012.5
20260905065628 71 100 0.0 1.0 0.00 0.01 0.00 92 1012.6
20260905065128 71 73 0.0 1.0 0.00 0.01 0.00 92 1012.6
20260905064724 72 100 0.0 1.0 0.00 0.01 0.00 92 1012.7
20260905064700 71 54 0.0 1.0 0.00 0.01 0.00 92 1012.6
20260905063626 72 54 0.0 1.0 0.00 0.01 0.00 92 1012.8
20260905063126 72 82 0.0 1.0 0.00 0.01 0.00 92 1012.9
20260905062914 72 143 0.0 1.0 0.00 0.01 0.00 92 1012.9
20260905062121 72 54 0.0 0.0 0.00 0.01 0.00 92 1013.1
20260905061621 72 11 0.0 1.0 0.00 0.01 0.00 92 1013.2
20260905061122 72 54 0.0 1.0 0.00 0.01 0.00 92 1013.2
20260905060622 72 54 0.0 1.0 0.00 0.01 0.00 92 1013.3
20260905060412 72 100 0.0 1.0 0.00 0.01 0.00 92 1013.3
20260905055621 72 11 0.0 1.0 0.00 0.01 0.00 92 1013.3
20260905055121 72 11 0.0 1.0 0.00 0.01 0.00 92 1013.4
20260905054923 72 54 1.0 3.0 0.00 0.01 0.00 92 1013.3
20260905054410 72 260 1.0 3.0 0.00 0.01 0.00 92 1013.5
20260905053911 72 279 0.0 1.0 0.00 0.01 0.00 92 1013.4
20260905053109 72 54 0.0 1.0 0.00 0.01 0.00 92 1013.6
20260905052859 73 54 0.0 1.0 0.00 0.01 0.00 92 1013.5
20260905052402 73 54 0.0 1.0 0.00 0.01 0.00 92 1013.5
20260905051608 73 11 0.0 1.0 0.00 0.01 0.00 92 1013.6
20260905051104 73 54 0.0 3.0 0.00 0.01 0.00 92 1013.7
20260905050602 73 279 0.0 3.0 0.00 0.01 0.00 92 1013.8
20260905050104 73 279 0.0 1.0 0.00 0.01 0.00 92 1013.9
20260905045603 73 54 0.0 1.0 0.00 0.01 0.00 92 1013.8
20260905045102 73 54 0.0 1.0 0.00 0.01 0.00 92 1013.9
20260905044602 73 11 0.0 3.0 0.00 0.01 0.00 92 1013.9
20260905044102 73 54 0.0 3.0 0.00 0.01 0.00 92 1013.8
20260905043603 73 54 0.0 3.0 0.00 0.01 0.00 91 1013.9
20260905043102 73 54 0.0 3.0 0.00 0.01 0.00 91 1013.9
20260905042601 73 286 0.0 3.0 0.00 0.01 0.00 91 1013.9
20260905042103 73 100 0.0 3.0 0.00 0.01 0.00 91 1014.0
20260905041851 73 215 0.0 3.0 0.00 0.01 0.00 91 1013.9
20260905041357 73 178 1.0 3.0 0.00 0.01 0.00 91 1013.8
20260905040852 74 188 1.0 3.0 0.00 0.01 0.00 91 1013.8
20260905040054 74 143 1.0 3.0 0.00 0.01 0.00 91 1013.9
20260905035843 74 100 0.0 1.0 0.00 0.01 0.01 91 1014.0
20260905035049 74 54 0.0 3.0 0.00 0.03 0.01 91 1014.1
20260905034546 74 54 0.0 3.0 0.00 0.15 0.01 91 1014.1
20260905034142 74 234 0.0 3.0 0.00 0.49 0.01 91 1014.4
20260905034121 74 11 0.0 3.0 0.00 0.38 0.01 91 1014.3
20260905033048 74 234 0.0 3.0 0.00 0.49 0.01 91 1014.4
20260905032547 74 289 1.0 3.0 0.00 0.49 0.01 91 1014.4
20260905032048 74 54 1.0 3.0 0.00 0.49 0.01 91 1014.3
20260905031848 74 248 1.0 3.0 0.00 0.49 0.01 91 1014.4
20260905031133 74 143 0.0 1.0 0.00 0.49 0.01 91 1014.5
20260905031116 74 188 0.0 1.0 0.00 0.49 0.01 91 1014.5
20260905030050 74 11 0.0 1.0 0.00 0.49 0.01 91 1014.3
20260905025547 74 11 0.0 1.0 0.00 0.49 0.01 91 1014.2
20260905025046 74 11 0.0 1.0 0.00 0.49 0.01 91 1014.2
20260905024841 74 100 0.0 1.0 0.00 0.49 0.01 90 1014.4
20260905024049 75 54 0.0 1.0 0.00 0.49 0.01 90 1014.3
20260905023833 75 54 0.0 1.0 0.00 0.49 0.01 90 1014.4
20260905023042 75 54 1.0 3.0 0.00 0.49 0.01 90 1014.4
20260905022539 75 100 1.0 3.0 0.00 0.49 0.01 90 1014.5
20260905022040 75 198 1.0 3.0 0.00 0.49 0.01 90 1014.3
20260905021538 75 188 0.0 1.0 0.00 0.49 0.01 90 1014.1
20260905021037 75 11 0.0 1.0 0.00 0.49 0.01 90 1013.9
20260905020537 75 100 0.0 1.0 0.00 0.49 0.01 90 1014.1
20260905020038 75 11 0.0 1.0 0.00 0.49 0.01 89 1014.0
20260905015537 75 54 0.0 1.0 0.00 0.49 0.01 89 1014.0
20260905015038 76 54 0.0 1.0 0.00 0.49 0.01 89 1014.1
20260905014534 76 100 0.0 3.0 0.00 0.49 0.01 89 1014.1
20260905014032 76 54 0.0 3.0 0.00 0.49 0.01 89 1013.9
20260905013532 76 89 0.0 3.0 0.00 0.49 0.01 89 1013.7
20260905013034 76 117 0.0 1.0 0.00 0.49 0.01 89 1013.7
20260905012534 76 100 0.0 1.0 0.00 0.49 0.01 88 1013.8
20260905012033 76 54 0.0 1.0 0.00 0.49 0.01 88 1013.6
20260905011533 76 82 0.0 3.0 0.00 0.49 0.01 88 1013.5
20260905011035 76 89 1.0 3.0 0.00 0.49 0.01 88 1013.4
20260905010533 76 171 1.0 1.0 0.00 0.49 0.01 88 1013.3
20260905010033 76 143 0.0 1.0 0.00 0.49 0.01 88 1013.1
20260905005535 77 100 0.0 1.0 0.00 0.49 0.01 88 1013.1
20260905005032 77 82 0.0 3.0 0.00 0.49 0.01 88 1013.1
20260905004534 77 54 1.0 3.0 0.00 0.49 0.01 88 1013.2
20260905004033 77 82 0.0 3.0 0.00 0.49 0.01 88 1013.2
20260905003532 77 54 0.0 1.0 0.00 0.49 0.01 87 1013.3
20260905003034 77 54 1.0 3.0 0.00 0.49 0.01 87 1013.3
20260905002534 77 11 1.0 3.0 0.00 0.49 0.01 87 1013.2
20260905002032 78 82 0.0 1.0 0.00 0.49 0.01 87 1013.2
20260905001821 78 69 0.0 1.0 0.00 0.49 0.01 87 1013.1
20260905001032 78 73 0.0 3.0 0.00 0.49 0.01 87 1013.0
20260905000534 78 100 0.0 3.0 0.00 0.49 0.01 87 1013.1
20260905000033 78 11 0.0 1.0 0.00 0.49 0.01 87 1013.2
20260904235532 78 54 0.0 3.0 0.00 0.49 0.01 87 1013.2
20260904235327 78 143 1.0 3.0 0.00 0.49 0.01 87 1013.1
20260904234534 79 82 1.0 3.0 0.00 0.49 0.01 87 1013.1
20260904234030 79 143 1.0 3.0 0.00 0.49 0.01 87 1013.3
20260904233532 79 100 1.0 3.0 0.00 0.49 0.01 86 1013.3
20260904233031 79 11 1.0 5.0 0.00 0.49 0.01 86 1013.4
20260904232531 79 143 1.0 5.0 0.00 0.49 0.01 86 1013.4
20260904232030 79 117 0.0 4.0 0.00 0.49 0.01 86 1013.3
20260904231531 79 11 0.0 3.0 0.00 0.49 0.01 86 1013.5
20260904231030 79 54 1.0 3.0 0.00 0.49 0.01 86 1013.4
20260904230530 79 143 1.0 4.0 0.00 0.49 0.01 86 1013.4
20260904230030 79 284 1.0 5.0 0.00 0.49 0.01 86 1013.2
20260904225532 80 218 1.0 5.0 0.00 0.49 0.01 86 1013.3
20260904225331 80 11 0.0 3.0 0.00 0.49 0.01 86 1013.2
20260904224532 80 188 1.0 3.0 0.00 0.49 0.01 86 1013.1
20260904224030 80 194 0.0 3.0 0.00 0.49 0.01 86 1013.2
20260904223529 80 100 1.0 5.0 0.00 0.49 0.01 86 1013.0
20260904223030 80 326 1.0 5.0 0.00 0.49 0.01 85 1013.3
20260904222530 80 241 0.0 4.0 0.00 0.49 0.01 86 1013.4
20260904222029 80 326 1.0 3.0 0.00 0.49 0.01 86 1013.4
20260904221529 80 100 1.0 4.0 0.00 0.49 0.01 85 1013.4
20260904221029 80 143 1.0 5.0 0.00 0.49 0.01 85 1013.5
20260904220824 80 225 1.0 5.0 0.00 0.49 0.01 86 1013.7
20260904220029 80 196 1.0 5.0 0.00 0.49 0.01 86 1013.8
20260904215531 81 186 1.0 5.0 0.00 0.49 0.01 86 1013.8
20260904215030 81 178 1.0 4.0 0.00 0.49 0.01 86 1013.8
20260904214531 81 162 1.0 4.0 0.00 0.49 0.01 86 1013.8
20260904214030 81 86 0.0 3.0 0.01 0.49 0.01 85 1013.9
20260904213531 81 37 1.0 3.0 0.01 0.49 0.01 85 1013.9
20260904213025 81 143 1.0 5.0 0.01 0.49 0.01 84 1013.8
20260904212518 82 181 2.0 7.0 0.01 0.49 0.01 82 1013.9